Lid_Strength_Index
-2 -2 -1 -2 -1 -1 -1 -1 -1 -1 -2 -2 -2 -1 -1 -1 -1 1 3 0 1 -1 -0 0 1 1 2 4 3 3 9 11 10 9 9 8 8 7 5 5 5 4 4 3 2
-2 -2 -2 -2 -1 -1 -1 -1 -1 -1 -1 -2 -2 -1 -1 -1 1 3 -1 -1 -1 -1 1 2 4 3 4 5 5 6 9 9 6 6 7 6 8 8 7 6 6 5 3 2 2
-1 -1 -1 -1 -1 -1 -1 -1 -1 -1 -1 -2 -2 -2 -1 -1 4 3 -2 -2 -2 -0 2 2 2 4 6 5 6 7 9 7 7 6 5 6 8 8 7 7 6 5 4 4 3
-0 -1 -1 -1 -1 -1 -2 -1 -1 -1 -1 -2 -2 -2 -1 0 10 1 -2 -2 -2 -0 2 2 3 6 7 8 6 9 7 7 6 6 6 7 5 8 8 7 7 6 3 3 4
-0 -0 -1 -1 -1 -1 -1 -1 -1 -1 -1 -2 -2 -1 0 5 5 -1 -2 -1 -1 0 2 3 5 6 8 7 7 8 7 6 6 6 6 5 7 6 6 5 5 6 3 4 4
-0 -0 -1 -1 -1 -1 -1 -1 -1 -1 -1 -2 -2 -1 2 8 0 -1 -1 -0 0 1 2 3 4 4 6 7 7 6 6 6 6 6 6 7 6 6 5 7 7 6 5 4 4
-0 -1 -1 -1 -1 -1 -1 -1 -1 -1 -1 -2 -2 -0 3 5 -1 -1 -1 0 0 1 3 2 2 4 5 7 5 6 8 7 7 6 7 6 8 8 5 6 5 6 5 4 3
-1 -1 -1 -1 -1 -1 -1 -1 -1 -1 -1 -2 -2 0 6 0 -2 0 -0 1 -0 0 1 1 1 4 5 5 7 9 8 11 7 7 6 7 11 6 5 6 5 5 5 4 4
-1 -1 -1 -1 -1 -1 -1 -1 -1 -1 -2 -2 1 2 7 -0 2 0 -0 3 2 1 1 1 3 6 6 9 11 10 13 12 10 7 7 8 9 7 5 6 6 5 5 5 4
-1 -1 -1 -1 -1 -1 -1 -1 -1 -1 -0 -0 1 5 6 7 3 1 0 1 3 4 5 5 7 9 9 11 16 13 13 11 11 8 8 9 9 7 6 6 6 5 5 5 5
-1 -1 -1 -1 -1 -1 -0 1 5 6 3 6 6 7 6 4 1 2 1 3 3 6 10 8 11 13 11 9 9 9 11 11 9 8 9 10 9 8 6 7 7 7 6 6 6
-1 -1 -1 -1 -1 -1 -0 4 4 3 8 4 5 5 3 3 6 4 1 6 8 10 8 11 13 9 8 9 10 11 11 12 10 8 9 9 10 8 7 7 6 6 6 6 6
-1 -1 -1 -1 -1 0 2 3 0 3 8 7 6 5 5 4 6 6 4 5 8 10 10 12 10 7 9 10 12 12 13 12 12 9 9 10 11 9 7 7 7 7 7 6 5
-1 -1 -1 -1 1 1 3 0 0 2 12 11 8 6 4 4 7 3 3 5 7 10 9 10 7 9 10 12 10 14 9 10 12 13 16 9 16 10 8 8 8 8 7 7 6
-1 -1 -1 -1 2 4 2 -0 1 6 20 11 8 3 4 7 7 7 3 5 9 9 9 11 10 11 12 11 9 12 9 10 10 13 13 13 16 12 8 9 9 8 7 7 6
-1 -1 -1 0 1 1 -0 -0 3 14 20 13 9 9 9 7 8 6 6 4 5 8 8 9 7 8 9 8 9 8 11 11 11 13 19 14 15 14 11 9 8 7 6 6 6
-1 -1 -0 0 4 -1 0 4 14 18 11 13 12 10 9 10 9 9 10 11 11 15 14 11 11 8 8 11 9 10 14 19 20 20 20 12 15 13 9 7 7 7 6 6 6
-1 -1 -0 0 -0 -0 2 10 18 14 13 10 10 10 12 10 10 10 11 13 9 9 12 15 17 12 8 10 12 12 13 18 22 21 17 13 18 13 7 6 6 6 6 5 7
-1 1 2 1 -0 1 7 15 15 13 11 11 11 13 13 11 11 11 11 12 10 9 13 14 14 8 8 8 9 13 15 11 16 17 18 16 13 9 8 8 7 6 6 6 6
2 3 3 0 -0 3 10 13 12 9 9 9 14 12 15 13 12 12 12 9 10 8 7 10 15 9 9 8 8 10 10 16 16 21 22 16 15 13 11 9 8 7 7 6 6
3 7 2 -0 1 7 13 12 11 8 8 10 11 13 12 13 11 12 12 9 8 9 8 9 11 13 10 12 12 12 14 13 14 16 20 19 15 8 9 8 8 7 6 6 6
4 10 2 1 9 9 12 10 9 9 7 9 8 9 11 11 12 12 12 9 7 7 11 9 11 15 13 9 8 9 11 11 17 18 16 17 16 9 8 7 7 8 7 7 8
7 7 2 3 12 12 9 9 9 10 9 9 10 9 8 11 13 11 10 7 7 8 10 9 13 17 15 12 10 11 10 10 11 12 17 19 15 9 8 8 8 10 9 9 10
6 11 7 6 6 10 11 11 11 8 9 8 9 8 9 11 10 12 11 8 7 7 7 7 11 13 16 13 10 13 11 11 11 16 15 15 13 9 8 8 7 8 9 9 9
6 9 7 12 10 9 8 10 11 12 8 8 9 9 10 13 12 12 10 10 8 7 8 8 14 12 11 10 10 11 11 11 12 12 14 12 12 10 8 7 6 6 6 9 8
8 9 7 9 8 9 9 11 12 10 9 10 11 9 9 11 10 12 10 10 11 9 10 9 14 12 14 11 11 13 11 11 11 11 11 11 11 8 7 6 6 6 6 6 6
4 4 6 8 9 10 11 11 10 9 9 8 8 9 10 9 7 7 7 7 8 10 11 12 13 14 16 12 13 16 13 11 10 9 10 13 10 7 7 7 6 6 6 7 7